| time (UTC) | temp F | wind direction | speed knots | gust knots | rain 1hr in | rain 24hr in | rain mn in | humidity % | barometer mb |
| 20260508210045 | 46 | 127 | 5.2 | 8.7 | 0.00 | 0.06 | 0.06 | 78 | 1010.7 |
| 20260508204548 | 46 | 86 | 5.2 | 7.8 | 0.00 | 0.06 | 0.06 | 81 | 1010.9 |
| 20260508203045 | 46 | 80 | 5.2 | 7.8 | 0.00 | 0.06 | 0.06 | 80 | 1011.1 |
| 20260508201546 | 46 | 97 | 2.6 | 7.8 | 0.00 | 0.06 | 0.06 | 81 | 1011.2 |
| 20260508200105 | 45 | 84 | 5.2 | 7.8 | 0.00 | 0.06 | 0.06 | 80 | 1011.2 |
| 20260508194545 | 45 | 89 | 6.1 | 7.8 | 0.00 | 0.06 | 0.06 | 80 | 1011.3 |
| 20260508193100 | 45 | 84 | 5.2 | 7.8 | 0.00 | 0.06 | 0.06 | 81 | 1011.6 |
| 20260508191546 | 45 | 88 | 4.3 | 7.0 | 0.00 | 0.06 | 0.06 | 81 | 1011.8 |
| 20260508190052 | 45 | 45 | 3.5 | 7.0 | 0.00 | 0.06 | 0.06 | 83 | 1011.7 |
| 20260508184545 | 44 | 47 | 4.3 | 7.8 | 0.00 | 0.06 | 0.06 | 85 | 1011.7 |
| 20260508183106 | 44 | 27 | 7.0 | 9.6 | 0.00 | 0.06 | 0.06 | 83 | 1011.7 |
| 20260508181600 | 45 | 24 | 7.0 | 8.7 | 0.00 | 0.06 | 0.06 | 83 | 1011.9 |
| 20260508180045 | 45 | 360 | 6.1 | 8.7 | 0.00 | 0.06 | 0.06 | 83 | 1011.9 |
| 20260508174551 | 45 | 19 | 7.0 | 8.7 | 0.00 | 0.06 | 0.06 | 83 | 1011.9 |
| 20260508173046 | 45 | 360 | 4.3 | 7.0 | 0.00 | 0.06 | 0.06 | 84 | 1012.1 |
| 20260508171547 | 45 | 360 | 3.5 | 7.8 | 0.00 | 0.06 | 0.06 | 83 | 1012.2 |
| 20260508170052 | 46 | 351 | 6.1 | 7.8 | 0.00 | 0.06 | 0.06 | 83 | 1012.3 |
| 20260508164547 | 46 | 327 | 4.3 | 7.8 | 0.00 | 0.06 | 0.06 | 83 | 1012.5 |
| 20260508163039 | 46 | 333 | 6.1 | 8.7 | 0.00 | 0.06 | 0.06 | 84 | 1012.7 |
| 20260508161547 | 46 | 340 | 6.1 | 9.6 | 0.00 | 0.06 | 0.06 | 83 | 1012.8 |
| 20260508160045 | 46 | 336 | 7.8 | 9.6 | 0.00 | 0.06 | 0.06 | 83 | 1012.8 |
| 20260508154605 | 45 | 332 | 9.6 | 12.2 | 0.00 | 0.06 | 0.06 | 83 | 1012.8 |
| 20260508153047 | 45 | 337 | 8.7 | 11.3 | 0.00 | 0.06 | 0.06 | 83 | 1012.7 |
| 20260508151548 | 46 | 325 | 7.8 | 9.6 | 0.00 | 0.06 | 0.06 | 81 | 1012.7 |
| 20260508150050 | 47 | 328 | 5.2 | 8.7 | 0.00 | 0.06 | 0.06 | 79 | 1012.5 |
| 20260508144557 | 46 | 265 | 4.3 | 7.8 | 0.00 | 0.06 | 0.06 | 79 | 1012.5 |
| 20260508143045 | 45 | 281 | 4.3 | 7.0 | 0.00 | 0.06 | 0.06 | 80 | 1012.4 |
| 20260508141541 | 45 | 277 | 5.2 | 8.7 | 0.01 | 0.06 | 0.06 | 83 | 1012.5 |
| 20260508140046 | 44 | 308 | 5.2 | 11.3 | 0.01 | 0.06 | 0.06 | 85 | 1012.5 |
| 20260508134558 | 44 | 265 | 5.2 | 9.6 | 0.03 | 0.06 | 0.06 | 88 | 1012.5 |
| 20260508133051 | 43 | 204 | 1.7 | 5.2 | 0.03 | 0.06 | 0.06 | 90 | 1012.5 |
| 20260508131547 | 42 | 221 | 2.6 | 8.7 | 0.02 | 0.05 | 0.05 | 87 | 1012.3 |
| 20260508130043 | 43 | 360 | 4.3 | 7.8 | 0.02 | 0.05 | 0.05 | 90 | 1012.5 |
| 20260508124545 | 43 | 360 | 2.6 | 5.2 | 0.00 | 0.03 | 0.03 | 89 | 1012.4 |
| 20260508123050 | 43 | 258 | 2.6 | 5.2 | 0.00 | 0.03 | 0.03 | 90 | 1012.2 |
| 20260508121547 | 43 | 360 | 2.6 | 6.1 | 0.00 | 0.03 | 0.03 | 90 | 1012.1 |
| 20260508120046 | 42 | 236 | 2.6 | 5.2 | 0.00 | 0.03 | 0.03 | 91 | 1012.0 |
| 20260508114545 | 42 | 202 | 1.7 | 5.2 | 0.00 | 0.03 | 0.03 | 91 | 1011.6 |
| 20260508113045 | 41 | 202 | 0.9 | 3.5 | 0.00 | 0.03 | 0.03 | 91 | 1011.4 |
| 20260508111546 | 41 | 202 | 2.6 | 3.5 | 0.00 | 0.03 | 0.03 | 92 | 1011.5 |
| 20260508110044 | 40 | 202 | 1.7 | 4.3 | 0.00 | 0.03 | 0.03 | 92 | 1011.2 |
| 20260508104545 | 40 | 202 | 1.7 | 3.5 | 0.00 | 0.03 | 0.03 | 92 | 1011.2 |
| 20260508103045 | 40 | 360 | 2.6 | 5.2 | 0.00 | 0.03 | 0.03 | 92 | 1011.4 |
| 20260508101541 | 40 | 213 | 3.5 | 5.2 | 0.00 | 0.03 | 0.03 | 92 | 1011.5 |
| 20260508100056 | 40 | 213 | 3.5 | 7.0 | 0.00 | 0.03 | 0.03 | 92 | 1011.6 |
| 20260508094549 | 40 | 209 | 4.3 | 7.8 | 0.00 | 0.03 | 0.03 | 92 | 1011.6 |
| 20260508093045 | 39 | 207 | 4.3 | 6.1 | 0.00 | 0.03 | 0.03 | 92 | 1011.6 |
| 20260508091547 | 39 | 202 | 3.5 | 6.1 | 0.00 | 0.03 | 0.03 | 92 | 1011.7 |
| 20260508090103 | 39 | 229 | 3.5 | 5.2 | 0.00 | 0.03 | 0.03 | 92 | 1011.7 |
| 20260508084547 | 39 | 208 | 3.5 | 5.2 | 0.00 | 0.03 | 0.03 | 92 | 1011.4 |
| 20260508083044 | 39 | 210 | 3.5 | 5.2 | 0.00 | 0.03 | 0.03 | 92 | 1011.4 |
| 20260508081559 | 40 | 205 | 2.6 | 4.3 | 0.00 | 0.03 | 0.03 | 91 | 1011.3 |
| 20260508080056 | 40 | 207 | 2.6 | 4.3 | 0.00 | 0.03 | 0.03 | 91 | 1011.3 |
| 20260508074548 | 41 | 191 | 3.5 | 7.0 | 0.00 | 0.03 | 0.03 | 91 | 1011.3 |
| 20260508073103 | 41 | 230 | 2.6 | 5.2 | 0.00 | 0.03 | 0.03 | 91 | 1011.4 |
| 20260508071544 | 41 | 360 | 2.6 | 5.2 | 0.00 | 0.03 | 0.03 | 90 | 1011.4 |
| 20260508070048 | 42 | 203 | 3.5 | 7.0 | 0.00 | 0.03 | 0.03 | 90 | 1011.5 |
| 20260508064547 | 42 | 360 | 2.6 | 7.0 | 0.00 | 0.03 | 0.03 | 90 | 1011.5 |
| 20260508063050 | 42 | 360 | 3.5 | 5.2 | 0.01 | 0.03 | 0.03 | 89 | 1011.5 |
| 20260508061549 | 42 | 360 | 4.3 | 7.8 | 0.01 | 0.03 | 0.03 | 88 | 1011.7 |
| 20260508060100 | 42 | 232 | 4.3 | 7.0 | 0.01 | 0.03 | 0.03 | 88 | 1011.6 |
| 20260508054546 | 43 | 257 | 3.5 | 10.4 | 0.01 | 0.03 | 0.03 | 87 | 1011.6 |
| 20260508053046 | 43 | 261 | 6.1 | 9.6 | 0.01 | 0.02 | 0.02 | 88 | 1011.7 |
| 20260508051602 | 43 | 248 | 7.0 | 9.6 | 0.01 | 0.02 | 0.02 | 88 | 1011.8 |
| 20260508050052 | 43 | 232 | 3.5 | 7.0 | 0.02 | 0.02 | 0.02 | 87 | 1011.7 |
| 20260508044550 | 43 | 223 | 4.3 | 7.0 | 0.02 | 0.02 | 0.02 | 86 | 1011.6 |
| 20260508043044 | 43 | 240 | 3.5 | 7.0 | 0.01 | 0.01 | 0.01 | 84 | 1011.6 |
| 20260508041547 | 44 | 240 | 7.8 | 13.9 | 0.01 | 0.01 | 0.01 | 83 | 1011.6 |
| 20260508040053 | 45 | 273 | 7.8 | 11.3 | 0.00 | 0.00 | 0.00 | 84 | 1011.5 |
| 20260508034551 | 44 | 279 | 5.2 | 10.4 | 0.00 | 0.00 | 0.00 | 83 | 1011.3 |
| 20260508033056 | 44 | 327 | 12.2 | 17.4 | 0.00 | 0.00 | 0.00 | 84 | 1011.2 |
| 20260508031554 | 45 | 360 | 13.9 | 20.0 | 0.00 | 0.00 | 0.00 | 84 | 1011.1 |
| 20260508030050 | 45 | 288 | 13.9 | 19.1 | 0.00 | 0.00 | 0.00 | 85 | 1011.2 |
| 20260508024610 | 44 | 300 | 8.7 | 13.0 | 0.00 | 0.00 | 0.00 | 82 | 1011.1 |
| 20260508023041 | 45 | 360 | 10.4 | 15.6 | 0.00 | 0.00 | 0.00 | 78 | 1011.1 |
| 20260508021549 | 45 | 302 | 7.8 | 9.6 | 0.00 | 0.00 | 0.00 | 78 | 1011.1 |
| 20260508020051 | 44 | 234 | 1.7 | 3.5 | 0.00 | 0.00 | 0.00 | 72 | 1010.9 |
| 20260508014550 | 44 | 234 | 0.9 | 3.5 | 0.00 | 0.00 | 0.00 | 71 | 1010.8 |
| 20260508013045 | 44 | 228 | 1.7 | 3.5 | 0.00 | 0.00 | 0.00 | 72 | 1010.8 |
| 20260508011548 | 44 | 223 | 1.7 | 3.5 | 0.00 | 0.00 | 0.00 | 74 | 1010.7 |
| 20260508010053 | 44 | 223 | 1.7 | 3.5 | 0.00 | 0.00 | 0.00 | 71 | 1010.6 |
| 20260508004552 | 45 | 264 | 0.0 | 2.6 | 0.00 | 0.00 | 0.00 | 68 | 1010.4 |
| 20260508003044 | 45 | 360 | 1.7 | 3.5 | 0.00 | 0.00 | 0.00 | 67 | 1010.4 |
| 20260508001548 | 46 | 360 | 0.9 | 4.3 | 0.00 | 0.00 | 0.00 | 66 | 1010.2 |
| 20260508000053 | 46 | 360 | 2.6 | 5.2 | 0.00 | 0.00 | 0.00 | 67 | 1010.1 |
| 20260507234545 | 46 | 360 | 2.6 | 5.2 | 0.00 | 0.00 | 0.00 | 67 | 1010.1 |
| 20260507233046 | 47 | 360 | 2.6 | 4.3 | 0.00 | 0.00 | 0.00 | 65 | 1010.0 |
| 20260507231546 | 47 | 360 | 2.6 | 3.5 | 0.00 | 0.00 | 0.00 | 65 | 1010.0 |
| 20260507230104 | 47 | 360 | 2.6 | 6.1 | 0.00 | 0.00 | 0.00 | 66 | 1010.1 |
| 20260507224553 | 47 | 360 | 1.7 | 3.5 | 0.00 | 0.00 | 0.00 | 66 | 1010.0 |
| 20260507223046 | 47 | 275 | 2.6 | 6.1 | 0.00 | 0.00 | 0.00 | 63 | 1010.0 |
| 20260507221547 | 48 | 275 | 2.6 | 6.1 | 0.00 | 0.00 | 0.00 | 64 | 1010.1 |
| 20260507220053 | 48 | 360 | 1.7 | 4.3 | 0.00 | 0.00 | 0.00 | 60 | 1010.1 |
| 20260507214545 | 48 | 360 | 0.9 | 3.5 | 0.00 | 0.00 | 0.00 | 60 | 1010.2 |
| 20260507213046 | 47 | 360 | 0.9 | 3.5 | 0.00 | 0.00 | 0.00 | 60 | 1010.2 |
| 20260507211546 | 47 | 360 | 0.0 | 2.6 | 0.00 | 0.00 | 0.00 | 64 | 1010.1 |